Location: Quedlinburg
(51.7921°N, 11.1414°E)
Time: 13:17:02
(UTC+02:00)

RS-15 - Pass Details

Date: 15 March 2026
Orbit: 1893 x 2152 km, 64.8° (Epoch: 22 April)

Event Time Altitude Azimuth Distance (km) Brightness Sun altitude
Rises 22:52:28 0° 252° (WSW) 5,275 10.4 -36.5°
Reaches altitude 10° 22:55:50 10° 257° (WSW) 4,289 9.9 -36.7°
Maximum altitude 23:06:30 54° 334° (NNW) 2,285 8.5 -37.5°
Drops below altitude 10° 23:17:40 10° 50° (NE) 4,459 10.0 -38.1°
Sets 23:21:16 0° 56° (NE) 5,495 10.5 -38.3°
